Location: Dal�� Lhota
(48.7500°N, 14.0167°E)
Time: 07:34:45
(UTC+00:00)

Explorer 7 - Pass Details

Date: 02 August 2021
Orbit: 484 x 676 km, 50.3° (Epoch: 21 September)

Event Time Altitude Azimuth Distance (km) Brightness Sun altitude
Exits shadow 03:39:53 -1° 221° (SW) 2,610 9.7 -0.7°
Rises 03:40:04 0° 220° (SW) 2,541 9.6 -0.7°
Reaches altitude 10° 03:42:20 10° 210° (SSW) 1,675 8.8 -0.4°
Maximum altitude 03:45:44 32° 146° (SE) 872 8.0 0.1°
Drops below altitude 10° 03:49:16 10° 82° (E) 1,743 11.0 0.7°
Sets 03:51:40 0° 73° (ENE) 2,664 12.8 1.0°
